TimeMST,TemperatureF,Dew PointF,Humidity,Sea Level PressureIn,VisibilityMPH,Wind Direction,Wind SpeedMPH,Gust SpeedMPH,PrecipitationIn,Events,Conditions,WindDirDegrees,DateUTC
12:14 AM,32.0,23.0,69,30.28,10.0,SSW,9.2,-,N/A,,Clear,210,2013-03-02 07:14:00
12:35 AM,35.6,23.0,60,30.28,10.0,SSW,9.2,-,N/A,,Clear,210,2013-03-02 07:35:00
12:55 AM,37.4,23.0,56,30.28,10.0,SSW,10.4,-,N/A,,Clear,210,2013-03-02 07:55:00
1:09 AM,35.6,23.0,60,30.28,10.0,SW,10.4,-,N/A,,Clear,220,2013-03-02 08:09:00
1:32 AM,35.6,23.0,60,30.28,10.0,SW,10.4,-,N/A,,Clear,220,2013-03-02 08:32:00
1:48 AM,37.4,24.8,60,30.28,10.0,SSW,11.5,-,N/A,,Clear,210,2013-03-02 08:48:00
2:16 AM,37.4,24.8,60,30.28,10.0,SW,9.2,-,N/A,,Clear,220,2013-03-02 09:16:00
2:29 AM,37.4,24.8,60,30.27,10.0,SW,8.1,-,N/A,,Clear,220,2013-03-02 09:29:00
2:55 AM,35.6,24.8,65,30.27,10.0,SSW,8.1,-,N/A,,Clear,210,2013-03-02 09:55:00
3:16 AM,35.6,23.0,60,30.27,10.0,SSW,6.9,-,N/A,,Clear,210,2013-03-02 10:16:00
3:34 AM,35.6,23.0,60,30.27,10.0,SW,6.9,-,N/A,,Clear,220,2013-03-02 10:34:00
3:54 AM,33.8,23.0,65,30.27,10.0,SW,5.8,-,N/A,,Clear,220,2013-03-02 10:54:00
4:08 AM,32.0,23.0,69,30.27,10.0,SW,6.9,-,N/A,,Clear,220,2013-03-02 11:08:00
4:35 AM,32.0,23.0,69,30.28,10.0,SW,6.9,-,N/A,,Clear,220,2013-03-02 11:35:00
4:56 AM,32.0,23.0,69,30.28,10.0,South,8.1,-,N/A,,Clear,190,2013-03-02 11:56:00
5:15 AM,30.2,21.2,69,30.28,10.0,SSW,8.1,-,N/A,,Clear,210,2013-03-02 12:15:00
5:29 AM,30.2,21.2,69,30.27,10.0,SSW,9.2,-,N/A,,Clear,200,2013-03-02 12:29:00
5:55 AM,26.6,19.4,74,30.28,10.0,SSW,6.9,-,N/A,,Clear,200,2013-03-02 12:55:00
6:15 AM,28.4,21.2,74,30.28,10.0,SSW,8.1,-,N/A,,Clear,200,2013-03-02 13:15:00
6:28 AM,26.6,19.4,74,30.28,10.0,South,6.9,-,N/A,,Clear,190,2013-03-02 13:28:00
6:48 AM,28.4,19.4,69,30.28,10.0,South,6.9,-,N/A,,Clear,190,2013-03-02 13:48:00
10:55 AM,42.8,32.0,66,30.27,50.0,South,6.9,-,N/A,,Mostly Cloudy,180,2013-03-02 17:55:00
11:54 AM,46.4,33.8,62,30.25,50.0,South,5.8,-,N/A,,Mostly Cloudy,180,2013-03-02 18:54:00
12:50 PM,48.2,33.8,58,30.22,50.0,SSE,3.5,-,N/A,,Mostly Cloudy,160,2013-03-02 19:50:00
1:50 PM,48.2,32.0,54,30.19,50.0,SSE,5.8,-,N/A,,Scattered Clouds,150,2013-03-02 20:50:00
3:50 PM,48.2,35.6,62,30.18,50.0,SSE,3.5,-,N/A,,Scattered Clouds,160,2013-03-02 22:50:00
4:48 PM,46.4,33.8,62,30.16,50.0,SSE,5.8,-,N/A,,Scattered Clouds,160,2013-03-02 23:48:00
5:52 PM,39.2,32.0,75,30.16,50.0,South,5.8,-,N/A,,Mostly Cloudy,180,2013-03-03 00:52:00
6:51 PM,39.2,32.0,75,30.16,20.0,South,6.9,-,N/A,,Mostly Cloudy,180,2013-03-03 01:51:00
7:48 PM,39.2,30.2,70,30.14,20.0,South,6.9,-,N/A,,Mostly Cloudy,180,2013-03-03 02:48:00
7:56 PM,37.4,32.0,81,30.14,10.0,South,8.1,-,N/A,,Clear,190,2013-03-03 02:56:00
8:16 PM,39.2,32.0,75,30.13,10.0,South,9.2,-,N/A,,Clear,190,2013-03-03 03:16:00
8:36 PM,37.4,32.0,81,30.13,10.0,South,6.9,-,N/A,,Clear,180,2013-03-03 03:36:00
8:55 PM,37.4,32.0,81,30.13,10.0,South,8.1,-,N/A,,Clear,190,2013-03-03 03:55:00
9:15 PM,41.0,32.0,70,30.13,10.0,South,10.4,-,N/A,,Clear,190,2013-03-03 04:15:00
9:28 PM,39.2,32.0,75,30.12,10.0,South,9.2,-,N/A,,Clear,190,2013-03-03 04:28:00
9:53 PM,37.4,32.0,81,30.11,10.0,South,9.2,-,N/A,,Clear,180,2013-03-03 04:53:00
10:16 PM,37.4,32.0,81,30.10,10.0,South,10.4,-,N/A,,Clear,190,2013-03-03 05:16:00
10:34 PM,37.4,32.0,81,30.10,10.0,South,9.2,-,N/A,,Clear,190,2013-03-03 05:34:00
10:54 PM,37.4,32.0,81,30.09,10.0,South,9.2,-,N/A,,Clear,180,2013-03-03 05:54:00
11:14 PM,37.4,32.0,81,30.07,10.0,South,8.1,-,N/A,,Clear,180,2013-03-03 06:14:00
11:32 PM,35.6,32.0,87,30.06,10.0,South,8.1,-,N/A,,Clear,180,2013-03-03 06:32:00
11:56 PM,35.6,32.0,87,30.04,10.0,South,9.2,-,N/A,,Clear,190,2013-03-03 06:56:00